Time,TemperatureF,DewpointF,PressureIn,WindDirection,WindDirectionDegrees,WindSpeedMPH,WindSpeedGustMPH,Humidity,HourlyPrecipIn,Conditions,Clouds,dailyrainin,SoftwareType,DateUTC
2013-02-19 00:13:00,37.8,24.0,30.21,SSW,205,0.0,3.0,58,0.00,,,0.00,weatherlink.com 1.10,2013-02-19 05:13:00,
2013-02-19 00:28:00,38.0,24.0,30.20,SSE,150,0.0,3.0,58,0.00,,,0.00,weatherlink.com 1.10,2013-02-19 05:28:00,
2013-02-19 00:43:00,37.1,24.0,30.20,SSE,150,0.0,2.0,59,0.00,,,0.00,weatherlink.com 1.10,2013-02-19 05:43:00,
2013-02-19 00:58:00,35.9,24.0,30.20,SE,144,0.0,2.0,62,0.00,,,0.00,weatherlink.com 1.10,2013-02-19 05:58:00,
2013-02-19 01:13:00,33.6,25.0,30.19,SW,229,0.0,2.0,71,0.00,,,0.00,weatherlink.com 1.10,2013-02-19 06:13:00,
2013-02-19 01:28:00,33.4,25.0,30.18,South,183,0.0,2.0,71,0.00,,,0.00,weatherlink.com 1.10,2013-02-19 06:28:00,
2013-02-19 01:43:00,35.6,25.0,30.17,South,170,0.0,3.0,65,0.00,,,0.00,weatherlink.com 1.10,2013-02-19 06:43:00,
2013-02-19 01:58:00,37.4,24.0,30.16,South,171,0.0,4.0,59,0.00,,,0.00,weatherlink.com 1.10,2013-02-19 06:58:00,
2013-02-19 02:13:00,38.0,24.0,30.14,SSE,158,0.0,2.0,57,0.00,,,0.00,weatherlink.com 1.10,2013-02-19 07:13:00,
2013-02-19 02:28:00,36.2,25.0,30.12,South,169,0.0,1.0,63,0.00,,,0.00,weatherlink.com 1.10,2013-02-19 07:28:00,
2013-02-19 02:43:00,36.6,24.0,30.14,West,275,0.0,2.0,61,0.00,,,0.00,weatherlink.com 1.10,2013-02-19 07:43:00,
2013-02-19 02:58:00,35.8,25.0,30.12,East,94,2.0,2.0,65,0.00,,,0.00,weatherlink.com 1.10,2013-02-19 07:58:00,
2013-02-19 03:13:00,35.3,27.0,30.13,North,5,0.0,2.0,72,0.00,,,0.00,weatherlink.com 1.10,2013-02-19 08:13:00,
2013-02-19 03:28:00,34.7,27.0,30.12,NNE,26,0.0,2.0,73,0.00,,,0.00,weatherlink.com 1.10,2013-02-19 08:28:00,
2013-02-19 03:43:00,35.3,27.0,30.12,South,175,0.0,3.0,71,0.00,,,0.00,weatherlink.com 1.10,2013-02-19 08:43:00,
2013-02-19 03:58:00,35.7,26.0,30.12,South,175,0.0,1.0,69,0.00,,,0.00,weatherlink.com 1.10,2013-02-19 08:58:00,
2013-02-19 04:13:00,36.9,28.0,30.13,SW,219,1.0,2.0,70,0.00,,,0.00,weatherlink.com 1.10,2013-02-19 09:13:00,
2013-02-19 04:28:00,38.5,27.0,30.11,South,188,3.0,6.0,64,0.00,,,0.00,weatherlink.com 1.10,2013-02-19 09:28:00,
2013-02-19 04:43:00,38.9,27.0,30.11,SSW,208,1.0,3.0,63,0.00,,,0.00,weatherlink.com 1.10,2013-02-19 09:43:00,
2013-02-19 04:58:00,38.9,28.0,30.10,South,191,1.0,3.0,64,0.00,,,0.00,weatherlink.com 1.10,2013-02-19 09:58:00,
2013-02-19 05:13:00,38.6,27.0,30.11,SSW,209,3.0,3.0,63,0.00,,,0.00,weatherlink.com 1.10,2013-02-19 10:13:00,
2013-02-19 05:28:00,38.6,27.0,30.11,WSW,244,2.0,5.0,64,0.00,,,0.00,weatherlink.com 1.10,2013-02-19 10:28:00,
2013-02-19 05:43:00,38.5,27.0,30.10,South,190,0.0,2.0,64,0.00,,,0.00,weatherlink.com 1.10,2013-02-19 10:43:00,
2013-02-19 05:58:00,38.5,28.0,30.10,SSW,195,0.0,3.0,65,0.00,,,0.00,weatherlink.com 1.10,2013-02-19 10:58:00,
2013-02-19 06:13:00,38.7,28.0,30.11,SSW,207,1.0,4.0,66,0.00,,,0.00,weatherlink.com 1.10,2013-02-19 11:13:00,
2013-02-19 06:28:00,38.4,30.0,30.09,SSE,166,0.0,3.0,72,0.00,,,0.00,weatherlink.com 1.10,2013-02-19 11:28:00,
2013-02-19 06:43:00,37.1,31.0,30.07,SE,141,0.0,2.0,79,0.04,,,0.04,weatherlink.com 1.10,2013-02-19 11:43:00,
2013-02-19 06:58:00,36.2,32.0,30.08,SSW,196,0.0,3.0,84,0.05,,,0.05,weatherlink.com 1.10,2013-02-19 11:58:00,
2013-02-19 07:13:00,35.7,32.0,30.08,SSE,160,0.0,3.0,86,0.08,,,0.08,weatherlink.com 1.10,2013-02-19 12:13:00,
2013-02-19 07:28:00,35.4,32.0,30.08,West,262,0.0,2.0,86,0.10,,,0.10,weatherlink.com 1.10,2013-02-19 12:28:00,
2013-02-19 07:43:00,35.2,32.0,30.08,South,173,0.0,1.0,89,0.07,,,0.11,weatherlink.com 1.10,2013-02-19 12:43:00,
2013-02-19 07:58:00,35.2,32.0,30.07,SSE,160,0.0,1.0,89,0.07,,,0.12,weatherlink.com 1.10,2013-02-19 12:58:00,
2013-02-19 08:13:00,35.2,33.0,30.07,SE,145,1.0,3.0,90,0.06,,,0.14,weatherlink.com 1.10,2013-02-19 13:13:00,
2013-02-19 08:28:00,35.2,33.0,30.06,SSE,161,1.0,4.0,90,0.04,,,0.14,weatherlink.com 1.10,2013-02-19 13:28:00,
2013-02-19 08:43:00,35.3,33.0,30.05,South,174,4.0,5.0,90,0.04,,,0.15,weatherlink.com 1.10,2013-02-19 13:43:00,
2013-02-19 08:59:00,35.5,33.0,30.04,SSW,207,3.0,6.0,90,0.03,,,0.15,weatherlink.com 1.10,2013-02-19 13:59:00,
2013-02-19 09:14:00,36.0,34.0,30.04,SSE,168,4.0,7.0,91,0.01,,,0.15,weatherlink.com 1.10,2013-02-19 14:14:00,
2013-02-19 09:29:00,36.3,34.0,30.03,SSW,205,4.0,7.0,91,0.01,,,0.15,weatherlink.com 1.10,2013-02-19 14:29:00,
2013-02-19 09:44:00,36.7,34.0,30.01,South,170,4.0,7.0,91,0.01,,,0.16,weatherlink.com 1.10,2013-02-19 14:44:00,
2013-02-19 09:59:00,37.3,35.0,30.02,South,181,2.0,7.0,91,0.01,,,0.16,weatherlink.com 1.10,2013-02-19 14:59:00,
2013-02-19 10:14:00,37.9,36.0,30.01,SW,229,7.0,8.0,91,0.01,,,0.16,weatherlink.com 1.10,2013-02-19 15:14:00,
2013-02-19 10:29:00,38.9,37.0,30.01,WSW,250,2.0,7.0,91,0.01,,,0.16,weatherlink.com 1.10,2013-02-19 15:29:00,
2013-02-19 10:44:00,39.8,37.0,30.01,SSW,193,5.0,9.0,90,0.00,,,0.16,weatherlink.com 1.10,2013-02-19 15:44:00,
2013-02-19 10:59:00,40.5,38.0,30.00,SSW,200,7.0,9.0,90,0.00,,,0.16,weatherlink.com 1.10,2013-02-19 15:59:00,
2013-02-19 11:14:00,41.3,39.0,29.99,SSW,213,6.0,11.0,90,0.00,,,0.16,weatherlink.com 1.10,2013-02-19 16:14:00,
2013-02-19 11:29:00,41.6,39.0,29.99,SE,130,2.0,11.0,89,0.00,,,0.16,weatherlink.com 1.10,2013-02-19 16:29:00,
2013-02-19 11:44:00,42.2,39.0,29.98,SSW,207,6.0,13.0,88,0.00,,,0.16,weatherlink.com 1.10,2013-02-19 16:44:00,
2013-02-19 11:59:00,42.7,39.0,29.97,South,183,2.0,10.0,88,0.00,,,0.16,weatherlink.com 1.10,2013-02-19 16:59:00,
2013-02-19 12:14:00,43.6,40.0,29.96,South,169,1.0,12.0,87,0.00,,,0.16,weatherlink.com 1.10,2013-02-19 17:14:00,
2013-02-19 12:29:00,44.3,40.0,29.95,SSW,197,8.0,15.0,85,0.00,,,0.16,weatherlink.com 1.10,2013-02-19 17:29:00,
2013-02-19 12:44:00,45.0,41.0,29.93,SSW,208,4.0,12.0,84,0.00,,,0.16,weatherlink.com 1.10,2013-02-19 17:44:00,
2013-02-19 12:59:00,45.6,40.0,29.92,SW,221,10.0,16.0,82,0.00,,,0.16,weatherlink.com 1.10,2013-02-19 17:59:00,
2013-02-19 13:14:00,46.7,41.0,29.91,SW,218,6.0,14.0,81,0.00,,,0.16,weatherlink.com 1.10,2013-02-19 18:14:00,
2013-02-19 13:29:00,48.5,42.0,29.90,SW,231,9.0,15.0,77,0.00,,,0.16,weatherlink.com 1.10,2013-02-19 18:29:00,
2013-02-19 13:44:00,48.6,42.0,29.89,South,184,5.0,14.0,79,0.00,,,0.16,weatherlink.com 1.10,2013-02-19 18:44:00,
2013-02-19 13:59:00,49.4,42.0,29.89,South,177,3.0,14.0,77,0.00,,,0.16,weatherlink.com 1.10,2013-02-19 18:59:00,
2013-02-19 14:14:00,48.8,42.0,29.88,SSW,205,7.0,17.0,77,0.00,,,0.16,weatherlink.com 1.10,2013-02-19 19:14:00,
2013-02-19 14:30:00,49.1,42.0,29.87,SSW,195,7.0,15.0,75,0.00,,,0.16,weatherlink.com 1.10,2013-02-19 19:30:00,
2013-02-19 14:45:00,49.4,41.0,29.87,WSW,238,7.0,14.0,74,0.00,,,0.16,weatherlink.com 1.10,2013-02-19 19:45:00,
2013-02-19 15:00:00,48.4,41.0,29.87,SSW,200,9.0,15.0,76,0.00,,,0.16,weatherlink.com 1.10,2013-02-19 20:00:00,
2013-02-19 15:15:00,49.7,41.0,29.86,SSW,205,8.0,17.0,73,0.00,,,0.16,weatherlink.com 1.10,2013-02-19 20:15:00,
2013-02-19 15:30:00,49.9,42.0,29.86,SSW,195,16.0,16.0,73,0.00,,,0.16,weatherlink.com 1.10,2013-02-19 20:30:00,
2013-02-19 15:45:00,50.1,41.0,29.86,SSW,212,7.0,14.0,72,0.00,,,0.16,weatherlink.com 1.10,2013-02-19 20:45:00,
2013-02-19 16:00:00,50.2,42.0,29.86,SSW,200,9.0,16.0,73,0.00,,,0.16,weatherlink.com 1.10,2013-02-19 21:00:00,
2013-02-19 16:15:00,51.4,42.0,29.86,SW,215,6.0,11.0,70,0.00,,,0.16,weatherlink.com 1.10,2013-02-19 21:15:00,
2013-02-19 16:30:00,51.6,41.0,29.86,WSW,245,8.0,17.0,68,0.00,,,0.16,weatherlink.com 1.10,2013-02-19 21:30:00,
2013-02-19 16:45:00,52.4,42.0,29.86,SSE,158,3.0,9.0,67,0.00,,,0.16,weatherlink.com 1.10,2013-02-19 21:45:00,
2013-02-19 17:00:00,52.8,41.0,29.87,South,184,6.0,9.0,65,0.00,,,0.16,weatherlink.com 1.10,2013-02-19 22:00:00,
2013-02-19 17:15:00,52.8,40.0,29.88,NW,317,0.0,13.0,63,0.00,,,0.16,weatherlink.com 1.10,2013-02-19 22:15:00,
2013-02-19 17:30:00,52.5,41.0,29.89,WSW,252,7.0,11.0,64,0.00,,,0.16,weatherlink.com 1.10,2013-02-19 22:30:00,
2013-02-19 17:45:00,52.1,41.0,29.89,West,273,2.0,10.0,65,0.00,,,0.16,weatherlink.com 1.10,2013-02-19 22:45:00,
2013-02-19 18:00:00,51.0,40.0,29.90,WNW,289,3.0,7.0,67,0.00,,,0.16,weatherlink.com 1.10,2013-02-19 23:00:00,
2013-02-19 18:15:00,50.4,39.0,29.91,WNW,299,4.0,11.0,65,0.00,,,0.16,weatherlink.com 1.10,2013-02-19 23:15:00,
2013-02-19 18:30:00,50.1,31.0,29.92,West,281,5.0,8.0,48,0.00,,,0.16,weatherlink.com 1.10,2013-02-19 23:30:00,
2013-02-19 18:45:00,49.7,26.0,29.93,WNW,297,5.0,8.0,40,0.00,,,0.16,weatherlink.com 1.10,2013-02-19 23:45:00,
2013-02-19 19:00:00,48.8,23.0,29.94,West,277,1.0,7.0,37,0.00,,,0.16,weatherlink.com 1.10,2013-02-20 00:00:00,
2013-02-19 19:15:00,47.9,22.0,29.95,West,273,3.0,6.0,36,0.00,,,0.16,weatherlink.com 1.10,2013-02-20 00:15:00,
2013-02-19 19:30:00,48.3,20.0,29.96,WNW,284,3.0,10.0,32,0.00,,,0.16,weatherlink.com 1.10,2013-02-20 00:30:00,
2013-02-19 19:45:00,48.3,18.0,29.96,NW,325,4.0,17.0,30,0.00,,,0.16,weatherlink.com 1.10,2013-02-20 00:45:00,
2013-02-19 20:00:00,47.3,19.0,29.98,NW,320,1.0,6.0,32,0.00,,,0.16,weatherlink.com 1.10,2013-02-20 01:00:00,
2013-02-19 20:15:00,46.1,19.0,29.98,NNW,347,1.0,4.0,34,0.00,,,0.16,weatherlink.com 1.10,2013-02-20 01:15:00,
2013-02-19 20:30:00,45.6,16.0,29.99,NW,311,5.0,9.0,30,0.00,,,0.16,weatherlink.com 1.10,2013-02-20 01:30:00,
2013-02-19 20:45:00,45.7,13.0,29.99,WNW,298,3.0,9.0,27,0.00,,,0.16,weatherlink.com 1.10,2013-02-20 01:45:00,
2013-02-19 21:00:00,46.0,12.0,29.99,WNW,301,5.0,21.0,25,0.00,,,0.16,weatherlink.com 1.10,2013-02-20 02:00:00,
2013-02-19 21:15:00,45.9,13.0,30.00,WNW,303,10.0,13.0,26,0.00,,,0.16,weatherlink.com 1.10,2013-02-20 02:15:00,
2013-02-19 21:30:00,45.6,12.0,30.00,NW,316,6.0,15.0,25,0.00,,,0.16,weatherlink.com 1.10,2013-02-20 02:30:00,
2013-02-19 21:45:00,45.3,12.0,30.00,WNW,290,9.0,16.0,26,0.00,,,0.16,weatherlink.com 1.10,2013-02-20 02:45:00,
2013-02-19 22:00:00,44.9,13.0,30.01,NNW,330,5.0,13.0,28,0.00,,,0.16,weatherlink.com 1.10,2013-02-20 03:00:00,
2013-02-19 22:15:00,44.2,14.0,30.01,WNW,299,3.0,10.0,29,0.00,,,0.16,weatherlink.com 1.10,2013-02-20 03:15:00,
2013-02-19 22:30:00,43.6,14.0,30.01,WNW,286,3.0,8.0,30,0.00,,,0.16,weatherlink.com 1.10,2013-02-20 03:30:00,
2013-02-19 22:45:00,43.2,14.0,30.02,WSW,256,4.0,10.0,31,0.00,,,0.16,weatherlink.com 1.10,2013-02-20 03:45:00,
2013-02-19 23:00:00,42.8,14.0,30.02,West,271,11.0,13.0,31,0.00,,,0.16,weatherlink.com 1.10,2013-02-20 04:00:00,
2013-02-19 23:15:00,42.5,14.0,30.02,West,274,6.0,15.0,31,0.00,,,0.16,weatherlink.com 1.10,2013-02-20 04:15:00,
2013-02-19 23:30:00,42.3,14.0,30.02,WSW,254,6.0,13.0,32,0.00,,,0.16,weatherlink.com 1.10,2013-02-20 04:30:00,
2013-02-19 23:45:00,41.7,14.0,30.02,WNW,290,4.0,13.0,32,0.00,,,0.16,weatherlink.com 1.10,2013-02-20 04:45:00,